COSMOS 1626 (15494 NORAD) Tracking and Keplerian Element Data

This shows tracking and keplerian element data for the satellite.

Feedback or suggestion? Click here.




ElementValue
Catalog15494
NameCOSMOS 1626
Epoch Orbit2332
Epoch Day15.72080155
Epoch Year2022
RAAN11.6723
Inclination82.478
Eccentricity0.0001326
Argument of Perigee6.8436
Mean Anonmoly353.282
Mean Motion15.25585954
Decay Rate3.623E-05
L11 15494U 85009A 22015.72080155 .00003623 00000+0 14146-3 0 9995
L22 15494 82.4780 11.6723 0001326 6.8436 353.2820 15.25585954 23325

Live tracking and technical data element details for COSMOS 1626 (NORAD 15494). COSMOS 1626 can be tracked NOW for your location showing map with azimuth and elevation plus other details from your city location.

Track the satellite on the map from your city or location and see movement details for azimuth, elevation, latitude, longitude, range, height, and movement on the map or in text.







IsCatalogInMostPopularTable: catalog: 15494, numindb: 374
Update: records affected: 1



GetName: 15494 COSMOS 1626

Hit Count: updated at: Mon, 17 Jan 2022 01:01:02 GMT